• In Romania
  • List of Countries
  • For 7 days
  • Water Temperature
  • Satellite Maps
  • Weather Map
  • Weather Widgets
  • user-avatar
    Login

    Hourly Weather Redkiy Kust

    Today, 22 July, Sunday

    Time Temperature Precipitation Wind Pressure Humidity
    00:00 +20°C° 0 mm 2 mps 744 mmHg 92%
    01:00 +19°C° 0 mm 2 mps 744 mmHg 93%
    02:00 +19°C° 0 mm 2 mps 744 mmHg 94%
    03:00 +18°C° 0 mm 2 mps 744 mmHg 96%
    04:00 +19°C° 0 mm 2 mps 744 mmHg 95%
    05:00 +19°C° 0 mm 2 mps 744 mmHg 94%
    06:00 +19°C° 0 mm 3 mps 744 mmHg 92%
    07:00 +21°C° 0 mm 3 mps 744 mmHg 88%
    08:00 +22°C° 0 mm 3 mps 744 mmHg 83%
    09:00 +25°C° 0 mm 4 mps 744 mmHg 78%
    10:00 +25°C° 0.4 mm 4 mps 744 mmHg 76%
    11:00 +26°C° 0.4 mm 4 mps 744 mmHg 74%
    12:00 +27°C° 0.4 mm 5 mps 744 mmHg 72%
    13:00 +27°C° 0.9 mm 4 mps 744 mmHg 72%
    14:00 +27°C° 0.9 mm 4 mps 744 mmHg 72%
    15:00 +27°C° 0.9 mm 4 mps 744 mmHg 72%
    16:00 +27°C° 0.7 mm 4 mps 744 mmHg 75%
    17:00 +26°C° 0.7 mm 4 mps 744 mmHg 78%
    18:00 +26°C° 0.7 mm 5 mps 744 mmHg 80%
    19:00 +25°C° 0.5 mm 5 mps 744 mmHg 83%
    20:00 +22°C° 0.5 mm 5 mps 744 mmHg 87%
    21:00 +21°C° 0.5 mm 6 mps 744 mmHg 90%
    22:00 +21°C° 0.1 mm 6 mps 744 mmHg 91%
    23:00 +20°C° 0.1 mm 6 mps 744 mmHg 92%

    Tomorrow, 23 July, Monday

    Time Temperature Precipitation Wind Pressure Humidity
    00:00 +20°C° 0.1 mm 6 mps 744 mmHg 92%
    01:00 +19°C° 0 mm 5 mps 745 mmHg 92%
    02:00 +19°C° 0 mm 5 mps 745 mmHg 92%
    03:00 +19°C° 0 mm 5 mps 745 mmHg 91%
    04:00 +19°C° 0 mm 5 mps 745 mmHg 90%
    05:00 +17°C° 0 mm 5 mps 745 mmHg 89%
    06:00 +17°C° 0 mm 5 mps 745 mmHg 88%
    07:00 +20°C° 0 mm 5 mps 745 mmHg 86%
    08:00 +21°C° 0 mm 5 mps 745 mmHg 84%
    09:00 +22°C° 0 mm 6 mps 745 mmHg 82%
    10:00 +23°C° 0.4 mm 6 mps 745 mmHg 79%
    11:00 +26°C° 0.4 mm 6 mps 745 mmHg 76%
    12:00 +27°C° 0.4 mm 6 mps 745 mmHg 74%
    13:00 +27°C° 0.9 mm 6 mps 745 mmHg 74%
    14:00 +27°C° 0.9 mm 6 mps 745 mmHg 73%
    15:00 +27°C° 0.9 mm 6 mps 745 mmHg 73%
    16:00 +27°C° 0.5 mm 6 mps 745 mmHg 76%
    17:00 +26°C° 0.5 mm 5 mps 746 mmHg 79%
    18:00 +26°C° 0.5 mm 5 mps 746 mmHg 82%
    19:00 +25°C° 0.5 mm 5 mps 746 mmHg 83%
    20:00 +23°C° 0.5 mm 5 mps 746 mmHg 84%
    21:00 +22°C° 0.5 mm 5 mps 747 mmHg 86%
    22:00 +21°C° 0 mm 5 mps 747 mmHg 86%
    23:00 +20°C° 0 mm 5 mps 747 mmHg 86%

    Day after tomorrow, 24 July, Tuesday

    Time Temperature Precipitation Wind Pressure Humidity
    00:00 +20°C° 0 mm 4 mps 747 mmHg 86%
    01:00 +19°C° 0 mm 4 mps 747 mmHg 87%
    02:00 +19°C° 0 mm 4 mps 747 mmHg 88%
    03:00 +19°C° 0 mm 3 mps 747 mmHg 88%
    04:00 +19°C° 0.1 mm 4 mps 748 mmHg 88%
    05:00 +19°C° 0.1 mm 4 mps 748 mmHg 87%
    06:00 +19°C° 0.1 mm 4 mps 748 mmHg 87%
    07:00 +20°C° 0.1 mm 4 mps 748 mmHg 83%
    08:00 +21°C° 0.1 mm 4 mps 748 mmHg 80%
    09:00 +22°C° 0.1 mm 5 mps 749 mmHg 76%
    10:00 +22°C° 0.1 mm 5 mps 749 mmHg 76%
    11:00 +23°C° 0.1 mm 5 mps 749 mmHg 75%
    12:00 +23°C° 0.1 mm 5 mps 749 mmHg 75%
    13:00 +23°C° 0.1 mm 5 mps 749 mmHg 73%
    14:00 +25°C° 0.1 mm 5 mps 749 mmHg 71%
    15:00 +25°C° 0.1 mm 5 mps 750 mmHg 69%
    16:00 +26°C° 0 mm 5 mps 750 mmHg 68%
    17:00 +26°C° 0 mm 4 mps 750 mmHg 67%
    18:00 +26°C° 0 mm 4 mps 750 mmHg 67%
    19:00 +25°C° 0 mm 4 mps 750 mmHg 67%
    20:00 +23°C° 0 mm 4 mps 750 mmHg 68%
    21:00 +22°C° 0 mm 4 mps 750 mmHg 68%
    22:00 +22°C° 0 mm 4 mps 750 mmHg 64%
    23:00 +22°C° 0 mm 5 mps 750 mmHg 59%

    25 July, Wednesday

    Time Temperature Precipitation Wind Pressure Humidity
    00:00 +22°C° 0 mm 5 mps 751 mmHg 54%
    01:00 +21°C° 0 mm 5 mps 751 mmHg 54%
    02:00 +21°C° 0 mm 5 mps 751 mmHg 54%
    03:00 +20°C° 0 mm 5 mps 751 mmHg 53%
    04:00 +20°C° 0 mm 4 mps 751 mmHg 56%
    05:00 +19°C° 0 mm 4 mps 751 mmHg 59%
    06:00 +19°C° 0 mm 4 mps 751 mmHg 62%
    07:00 +20°C° 0 mm 4 mps 752 mmHg 64%
    08:00 +20°C° 0 mm 5 mps 752 mmHg 66%
    09:00 +21°C° 0 mm 5 mps 752 mmHg 68%
    10:00 +22°C° 0 mm 5 mps 752 mmHg 66%
    11:00 +23°C° 0 mm 5 mps 752 mmHg 64%
    12:00 +25°C° 0 mm 5 mps 752 mmHg 62%
    13:00 +26°C° 0 mm 5 mps 752 mmHg 59%
    14:00 +28°C° 0 mm 6 mps 752 mmHg 55%
    15:00 +29°C° 0 mm 6 mps 752 mmHg 52%
    16:00 +28°C° 0 mm 5 mps 752 mmHg 55%
    17:00 +28°C° 0 mm 5 mps 752 mmHg 59%
    18:00 +27°C° 0 mm 4 mps 752 mmHg 62%
    19:00 +26°C° 0 mm 4 mps 753 mmHg 63%
    20:00 +23°C° 0 mm 4 mps 753 mmHg 64%
    21:00 +22°C° 0 mm 4 mps 753 mmHg 65%
    22:00 +22°C° 0 mm 5 mps 753 mmHg 61%
    23:00 +23°C° 0 mm 5 mps 753 mmHg 57%

    26 July, Thursday

    Time Temperature Precipitation Wind Pressure Humidity
    00:00 +23°C° 0 mm 5 mps 753 mmHg 54%
    01:00 +23°C° 0 mm 5 mps 753 mmHg 53%
    02:00 +23°C° 0 mm 5 mps 753 mmHg 53%
    03:00 +23°C° 0 mm 5 mps 753 mmHg 52%
    04:00 +23°C° 0 mm 5 mps 753 mmHg 58%
    05:00 +22°C° 0 mm 5 mps 753 mmHg 64%
    06:00 +21°C° 0 mm 5 mps 753 mmHg 70%
    07:00 +23°C° 0 mm 5 mps 753 mmHg 67%
    08:00 +24°C° 0 mm 6 mps 754 mmHg 65%
    09:00 +26°C° 0 mm 6 mps 754 mmHg 62%
    10:00 +28°C° 0 mm 6 mps 754 mmHg 60%
    11:00 +29°C° 0 mm 6 mps 754 mmHg 57%
    12:00 +30°C° 0 mm 6 mps 754 mmHg 54%
    13:00 +32°C° 0 mm 6 mps 754 mmHg 53%
    14:00 +32°C° 0 mm 6 mps 754 mmHg 52%
    15:00 +33°C° 0 mm 6 mps 754 mmHg 51%
    16:00 +32°C° 0 mm 6 mps 754 mmHg 55%
    17:00 +30°C° 0 mm 5 mps 754 mmHg 59%
    18:00 +30°C° 0 mm 4 mps 754 mmHg 63%
    19:00 +28°C° 0 mm 4 mps 755 mmHg 65%
    20:00 +27°C° 0 mm 4 mps 755 mmHg 67%
    21:00 +25°C° 0 mm 4 mps 755 mmHg 70%
    22:00 +23°C° 0 mm 4 mps 755 mmHg 70%
    23:00 +23°C° 0 mm 4 mps 755 mmHg 70%

    27 July, Friday

    Time Temperature Precipitation Wind Pressure Humidity
    00:00 +22°C° 0 mm 4 mps 755 mmHg 71%
    01:00 +21°C° 0 mm 4 mps 755 mmHg 73%
    02:00 +21°C° 0 mm 4 mps 755 mmHg 75%
    03:00 +20°C° 0 mm 4 mps 755 mmHg 77%
    04:00 +20°C° 0 mm 4 mps 755 mmHg 78%
    05:00 +20°C° 0 mm 4 mps 755 mmHg 79%
    06:00 +21°C° 0 mm 4 mps 756 mmHg 80%
    07:00 +22°C° 0 mm 4 mps 756 mmHg 75%
    08:00 +25°C° 0 mm 5 mps 756 mmHg 70%
    09:00 +27°C° 0 mm 5 mps 756 mmHg 65%
    10:00 +28°C° 0 mm 5 mps 755 mmHg 60%
    11:00 +29°C° 0 mm 6 mps 755 mmHg 55%
    12:00 +30°C° 0 mm 6 mps 755 mmHg 50%
    13:00 +30°C° 0 mm 6 mps 755 mmHg 50%
    14:00 +32°C° 0 mm 6 mps 755 mmHg 50%
    15:00 +32°C° 0 mm 6 mps 755 mmHg 50%
    16:00 +30°C° 0 mm 5 mps 755 mmHg 54%
    17:00 +30°C° 0 mm 4 mps 755 mmHg 59%
    18:00 +29°C° 0 mm 3 mps 755 mmHg 63%
    19:00 +28°C° 0 mm 3 mps 755 mmHg 66%
    20:00 +26°C° 0 mm 3 mps 755 mmHg 70%
    21:00 +24°C° 0 mm 3 mps 755 mmHg 73%
    22:00 +23°C° 0 mm 4 mps 755 mmHg 73%
    23:00 +22°C° 0 mm 4 mps 755 mmHg 72%
    Show more